Darstellungsparameter: Aktuell verwendete Einstellungen:
Skalierung der Graphiken ... ?
xyx+y,   Skalierungsfaktor:      Skalierung: Modus: x, Faktor: 1
Darstellungszeitraum ... ?
Vom - - bis: - -   Zeitraum: 13.02.2019 - 15.02.2019
Min/Max/Avg-Anzeige ... ?
Zeige MMA aktuell
Zeige MMA Monat
Zeige MMA alles
Zeige --A aktuell
Zeige --A Monat
Zeige --A alles
Keine MMA-Anzeige
MMA:
Minimum Maximum Average (ber die Originaldaten)
MMA-Basis: 13.02.2019 - 15.02.2019
Quicknavigation für Darstellung... ?
Tage:      1T, 2T, 3T, 5T -1T -2T -3T -5T +1T +2T +3T +5T
Wochen: 1W, 2W, 3W -1W -2W -3W +1W +2W +3W
Monate: 1M, 3M, 6M -1M -3M -6M +1M +3M +6M
Jahre:    1J, 3J, 5J, 10J -1J -3J -5J -10J +1J +3J +5J +10J
Nutze für die Darstellung ... ?
Originaldaten oder Mittelwerte auf ...
Stundenbasis Tagesbasis Wochenbasis
Monatsbasis Jahresbasis      Datenbasis: Original-Daten
Darstellen als:
Statistik (Auto) Statistik J:M      Darstellung:
Zur Graphik,    zurück zur Übersicht aller Sensoren.
 
Tabellarische Datenbersicht: ?
 
Sensor: Nr:Datum:Temp:Feuchte:Taupunkt:
Aussen-T/F 1 13-02-2019 00:00:00 1.4 C 93 % 0.4 C
2 13-02-2019 00:05:00 1.4 C 93 % 0.4 C
3 13-02-2019 00:10:00 1.3 C 93 % 0.3 C
4 13-02-2019 00:15:00 1.3 C 93 % 0.3 C
5 13-02-2019 00:20:00 1.3 C 93 % 0.3 C
6 13-02-2019 00:25:00 1.2 C 93 % 0.2 C
7 13-02-2019 00:30:00 1.2 C 93 % 0.2 C
8 13-02-2019 00:35:00 1.2 C 93 % 0.2 C
9 13-02-2019 00:40:00 1.2 C 93 % 0.2 C
10 13-02-2019 00:45:00 1.2 C 93 % 0.2 C
11 13-02-2019 00:50:00 1.2 C 93 % 0.2 C
12 13-02-2019 00:55:00 1.1 C 93 % 0.1 C
13 13-02-2019 01:00:00 0.9 C 93 % -0.1 C
14 13-02-2019 01:05:00 1 C 94 % 0.15 C
15 13-02-2019 01:10:00 0.9 C 93 % -0.1 C
16 13-02-2019 01:15:00 0.9 C 93 % -0.1 C
17 13-02-2019 01:20:00 0.8 C 93 % -0.2 C
18 13-02-2019 01:25:00 0.8 C 93 % -0.2 C
19 13-02-2019 01:30:00 0.8 C 93 % -0.2 C
20 13-02-2019 01:35:00 0.9 C 94 % 0.05 C
21 13-02-2019 01:40:00 1 C 94 % 0.15 C
22 13-02-2019 01:45:00 0.9 C 93 % -0.1 C
23 13-02-2019 01:50:00 0.8 C 93 % -0.2 C
24 13-02-2019 01:55:00 0.6 C 93 % -0.4 C
25 13-02-2019 02:00:00 0.5 C 93 % -0.5 C
Sensor: Nr:Datum:Temp:Feuchte:Taupunkt:
Aussen-T/F 26 13-02-2019 02:05:00 0.3 C 93 % -0.7 C
27 13-02-2019 02:10:00 0.2 C 93 % -0.79 C
28 13-02-2019 02:15:00 0.2 C 93 % -0.79 C
29 13-02-2019 02:20:00 0.1 C 93 % -0.89 C
30 13-02-2019 02:25:00 0.1 C 93 % -0.89 C
31 13-02-2019 02:30:00 0.1 C 93 % -0.89 C
32 13-02-2019 02:35:00 0 C 94 % -0.85 C
33 13-02-2019 02:40:00 0.1 C 94 % -0.75 C
34 13-02-2019 02:45:00 0 C 94 % -0.85 C
35 13-02-2019 02:50:00 0 C 94 % -0.85 C
36 13-02-2019 02:55:00 -0.1 C 94 % -0.95 C
37 13-02-2019 03:00:00 -0.2 C 94 % -1.05 C
38 13-02-2019 03:05:00 -0.2 C 94 % -1.05 C
39 13-02-2019 03:10:00 -0.3 C 94 % -1.15 C
40 13-02-2019 03:15:00 -0.3 C 94 % -1.15 C
41 13-02-2019 03:20:00 -0.3 C 94 % -1.15 C
42 13-02-2019 03:25:00 -0.4 C 94 % -1.25 C
43 13-02-2019 03:30:00 -0.4 C 94 % -1.25 C
44 13-02-2019 03:35:00 -0.4 C 94 % -1.25 C
45 13-02-2019 03:40:00 -0.4 C 94 % -1.25 C
46 13-02-2019 03:45:00 -0.3 C 94 % -1.15 C
47 13-02-2019 03:50:00 -0.3 C 94 % -1.15 C
48 13-02-2019 03:55:00 -0.3 C 94 % -1.15 C
49 13-02-2019 04:00:00 -0.3 C 94 % -1.15 C
50 13-02-2019 04:05:00 -0.4 C 94 % -1.25 C
Sensor: Nr:Datum:Temp:Feuchte:Taupunkt:
Aussen-T/F 51 13-02-2019 04:10:00 -0.4 C 94 % -1.25 C
52 13-02-2019 04:15:00 -0.4 C 94 % -1.25 C
53 13-02-2019 04:20:00 -0.4 C 95 % -1.1 C
54 13-02-2019 04:25:00 -0.4 C 94 % -1.25 C
55 13-02-2019 04:30:00 -0.3 C 95 % -1 C
56 13-02-2019 04:35:00 -0.3 C 95 % -1 C
57 13-02-2019 04:40:00 -0.3 C 95 % -1 C
58 13-02-2019 04:45:00 -0.3 C 95 % -1 C
59 13-02-2019 04:50:00 -0.2 C 95 % -0.9 C
60 13-02-2019 04:55:00 -0.3 C 95 % -1 C
61 13-02-2019 05:00:00 -0.3 C 95 % -1 C
62 13-02-2019 05:05:00 -0.3 C 95 % -1 C
63 13-02-2019 05:10:00 -0.3 C 95 % -1 C
64 13-02-2019 05:15:00 -0.3 C 95 % -1 C
65 13-02-2019 05:20:00 -0.4 C 95 % -1.1 C
66 13-02-2019 05:25:00 -0.5 C 95 % -1.2 C
67 13-02-2019 05:30:00 -0.5 C 95 % -1.2 C
68 13-02-2019 05:35:00 -0.6 C 95 % -1.3 C
69 13-02-2019 05:40:00 -0.6 C 95 % -1.3 C
70 13-02-2019 05:45:00 -0.6 C 95 % -1.3 C
71 13-02-2019 05:50:00 -0.6 C 95 % -1.3 C
72 13-02-2019 05:55:00 -0.6 C 95 % -1.3 C
73 13-02-2019 06:00:00 -0.6 C 95 % -1.3 C
74 13-02-2019 06:05:00 -0.6 C 95 % -1.3 C
75 13-02-2019 06:10:00 -0.5 C 95 % -1.2 C
Sensor: Nr:Datum:Temp:Feuchte:Taupunkt:
Aussen-T/F 76 13-02-2019 06:15:00 -0.5 C 95 % -1.2 C
77 13-02-2019 06:20:00 -0.6 C 95 % -1.3 C
78 13-02-2019 06:25:00 -0.6 C 95 % -1.3 C
79 13-02-2019 06:30:00 -0.5 C 95 % -1.2 C
80 13-02-2019 06:35:00 -0.5 C 95 % -1.2 C
81 13-02-2019 06:40:00 -0.4 C 95 % -1.1 C
82 13-02-2019 06:45:00 -0.3 C 95 % -1 C
83 13-02-2019 06:50:00 -0.2 C 96 % -0.76 C
84 13-02-2019 06:55:00 -0.1 C 96 % -0.66 C
85 13-02-2019 07:00:00 0 C 96 % -0.56 C
86 13-02-2019 07:05:00 0.1 C 96 % -0.46 C
87 13-02-2019 07:10:00 0.1 C 96 % -0.46 C
88 13-02-2019 07:15:00 0.2 C 96 % -0.36 C
89 13-02-2019 07:20:00 0.3 C 96 % -0.26 C
90 13-02-2019 07:25:00 0.3 C 96 % -0.26 C
91 13-02-2019 07:30:00 0.3 C 96 % -0.26 C
92 13-02-2019 07:35:00 0.3 C 96 % -0.26 C
93 13-02-2019 07:40:00 0.4 C 96 % -0.16 C
94 13-02-2019 07:45:00 0.4 C 96 % -0.16 C
95 13-02-2019 07:50:00 0.4 C 96 % -0.16 C
96 13-02-2019 07:55:00 0.4 C 96 % -0.16 C
97 13-02-2019 08:00:00 0.5 C 96 % -0.06 C
98 13-02-2019 08:05:00 0.5 C 96 % -0.06 C
99 13-02-2019 08:10:00 0.6 C 96 % 0.04 C
100 13-02-2019 08:15:00 0.6 C 96 % 0.04 C
Sensor: Nr:Datum:Temp:Feuchte:Taupunkt:
Aussen-T/F 101 13-02-2019 08:20:00 0.6 C 96 % 0.04 C
102 13-02-2019 08:25:00 0.7 C 96 % 0.14 C
103 13-02-2019 08:30:00 0.7 C 96 % 0.14 C
104 13-02-2019 08:35:00 0.7 C 96 % 0.14 C
105 13-02-2019 08:40:00 0.7 C 95 % -0.01 C
106 13-02-2019 08:45:00 0.8 C 95 % 0.09 C
107 13-02-2019 08:50:00 0.8 C 95 % 0.09 C
108 13-02-2019 08:55:00 0.8 C 95 % 0.09 C
109 13-02-2019 09:00:00 0.9 C 95 % 0.19 C
110 13-02-2019 09:05:00 0.9 C 96 % 0.34 C
111 13-02-2019 09:10:00 0.9 C 95 % 0.19 C
112 13-02-2019 09:15:00 0.9 C 95 % 0.19 C
113 13-02-2019 09:20:00 1 C 95 % 0.29 C
114 13-02-2019 09:25:00 1 C 95 % 0.29 C
115 13-02-2019 09:30:00 1 C 95 % 0.29 C
116 13-02-2019 09:35:00 1 C 95 % 0.29 C
117 13-02-2019 09:40:00 1.1 C 95 % 0.39 C
118 13-02-2019 09:45:00 1.1 C 95 % 0.39 C
119 13-02-2019 09:50:00 1.1 C 95 % 0.39 C
120 13-02-2019 09:55:00 1.2 C 95 % 0.49 C
121 13-02-2019 10:00:00 1.3 C 95 % 0.59 C
122 13-02-2019 10:05:00 1.3 C 94 % 0.44 C
123 13-02-2019 10:10:00 1.3 C 94 % 0.44 C
124 13-02-2019 10:15:00 1.4 C 94 % 0.54 C
125 13-02-2019 10:20:00 1.5 C 94 % 0.64 C
Sensor: Nr:Datum:Temp:Feuchte:Taupunkt:
Aussen-T/F 126 13-02-2019 10:25:00 1.6 C 94 % 0.74 C
127 13-02-2019 10:30:00 1.7 C 94 % 0.84 C
128 13-02-2019 10:35:00 1.7 C 93 % 0.69 C
129 13-02-2019 10:40:00 1.8 C 93 % 0.79 C
130 13-02-2019 10:45:00 1.8 C 93 % 0.79 C
131 13-02-2019 10:50:00 1.9 C 93 % 0.89 C
132 13-02-2019 10:55:00 2 C 93 % 0.99 C
133 13-02-2019 11:00:00 2.1 C 93 % 1.09 C
134 13-02-2019 11:05:00 2.2 C 92 % 1.04 C
135 13-02-2019 11:10:00 2.2 C 92 % 1.04 C
136 13-02-2019 11:15:00 2.3 C 91 % 0.99 C
137 13-02-2019 11:20:00 2.3 C 91 % 0.99 C
138 13-02-2019 11:25:00 2.3 C 91 % 0.99 C
139 13-02-2019 11:30:00 2.3 C 91 % 0.99 C
140 13-02-2019 11:35:00 2.3 C 91 % 0.99 C
141 13-02-2019 11:40:00 2.4 C 91 % 1.08 C
142 13-02-2019 11:45:00 2.4 C 91 % 1.08 C
143 13-02-2019 11:50:00 2.5 C 91 % 1.18 C
144 13-02-2019 11:55:00 2.6 C 91 % 1.28 C
145 13-02-2019 12:00:00 2.7 C 91 % 1.38 C
146 13-02-2019 12:05:00 2.8 C 91 % 1.48 C
147 13-02-2019 12:10:00 2.9 C 91 % 1.58 C
148 13-02-2019 12:15:00 3.1 C 91 % 1.78 C
149 13-02-2019 12:20:00 3.3 C 91 % 1.98 C
150 13-02-2019 12:25:00 3.5 C 90 % 2.02 C
Sensor: Nr:Datum:Temp:Feuchte:Taupunkt:
Aussen-T/F 151 13-02-2019 12:30:00 3.7 C 90 % 2.22 C
152 13-02-2019 12:35:00 3.9 C 89 % 2.26 C
153 13-02-2019 12:40:00 4.1 C 88 % 2.3 C
154 13-02-2019 12:45:00 4.3 C 87 % 2.33 C
155 13-02-2019 12:50:00 4.3 C 86 % 2.17 C
156 13-02-2019 12:55:00 4.4 C 86 % 2.27 C
157 13-02-2019 13:00:00 4.6 C 86 % 2.47 C
158 13-02-2019 13:05:00 4.6 C 85 % 2.3 C
159 13-02-2019 13:10:00 4.7 C 86 % 2.56 C
160 13-02-2019 13:15:00 4.8 C 85 % 2.5 C
161 13-02-2019 13:20:00 4.8 C 85 % 2.5 C
162 13-02-2019 13:25:00 4.9 C 85 % 2.6 C
163 13-02-2019 13:30:00 4.9 C 84 % 2.43 C
164 13-02-2019 13:35:00 4.9 C 84 % 2.43 C
165 13-02-2019 13:40:00 5 C 84 % 2.53 C
166 13-02-2019 13:45:00 5.1 C 84 % 2.63 C
167 13-02-2019 13:50:00 5.2 C 84 % 2.72 C
168 13-02-2019 13:55:00 5.2 C 84 % 2.72 C
169 13-02-2019 14:00:00 5.2 C 83 % 2.56 C
170 13-02-2019 14:05:00 5.3 C 84 % 2.82 C
171 13-02-2019 14:10:00 5.3 C 83 % 2.65 C
172 13-02-2019 14:15:00 5.4 C 83 % 2.75 C
173 13-02-2019 14:20:00 5.4 C 83 % 2.75 C
174 13-02-2019 14:25:00 5.4 C 83 % 2.75 C
175 13-02-2019 14:30:00 5.5 C 83 % 2.85 C
Sensor: Nr:Datum:Temp:Feuchte:Taupunkt:
Aussen-T/F 176 13-02-2019 14:35:00 5.5 C 83 % 2.85 C
177 13-02-2019 14:40:00 5.5 C 83 % 2.85 C
178 13-02-2019 14:45:00 5.5 C 83 % 2.85 C
179 13-02-2019 14:50:00 5.5 C 83 % 2.85 C
180 13-02-2019 14:55:00 5.5 C 83 % 2.85 C
181 13-02-2019 15:00:00 5.5 C 83 % 2.85 C
182 13-02-2019 15:05:00 5.5 C 83 % 2.85 C
183 13-02-2019 15:10:00 5.5 C 83 % 2.85 C
184 13-02-2019 15:15:00 5.5 C 83 % 2.85 C
185 13-02-2019 15:20:00 5.5 C 83 % 2.85 C
186 13-02-2019 15:25:00 5.6 C 83 % 2.95 C
187 13-02-2019 15:30:00 5.6 C 83 % 2.95 C
188 13-02-2019 15:35:00 5.6 C 83 % 2.95 C
189 13-02-2019 15:40:00 5.7 C 83 % 3.04 C
190 13-02-2019 15:45:00 5.7 C 83 % 3.04 C
191 13-02-2019 15:50:00 5.7 C 84 % 3.21 C
192 13-02-2019 15:55:00 5.8 C 84 % 3.31 C
193 13-02-2019 16:00:00 5.8 C 84 % 3.31 C
194 13-02-2019 16:05:00 5.8 C 84 % 3.31 C
195 13-02-2019 16:10:00 5.7 C 84 % 3.21 C
196 13-02-2019 16:15:00 5.7 C 85 % 3.38 C
197 13-02-2019 16:20:00 5.6 C 85 % 3.28 C
198 13-02-2019 16:25:00 5.6 C 85 % 3.28 C
199 13-02-2019 16:30:00 5.5 C 86 % 3.35 C
200 13-02-2019 16:35:00 5.4 C 86 % 3.25 C
Sensor: Nr:Datum:Temp:Feuchte:Taupunkt:
Aussen-T/F 201 13-02-2019 16:40:00 5.4 C 87 % 3.41 C
202 13-02-2019 16:45:00 5.4 C 87 % 3.41 C
203 13-02-2019 16:50:00 5.3 C 88 % 3.48 C
204 13-02-2019 16:55:00 5.3 C 88 % 3.48 C
205 13-02-2019 17:00:00 5.3 C 88 % 3.48 C
206 13-02-2019 17:05:00 5.2 C 88 % 3.38 C
207 13-02-2019 17:10:00 5.2 C 88 % 3.38 C
208 13-02-2019 17:15:00 5.1 C 88 % 3.28 C
209 13-02-2019 17:20:00 4.9 C 88 % 3.08 C
210 13-02-2019 17:25:00 4.8 C 88 % 2.99 C
211 13-02-2019 17:30:00 4.7 C 88 % 2.89 C
212 13-02-2019 17:35:00 4.5 C 89 % 2.85 C
213 13-02-2019 17:40:00 4.3 C 89 % 2.65 C
214 13-02-2019 17:45:00 4.2 C 89 % 2.55 C
215 13-02-2019 17:50:00 4.1 C 90 % 2.61 C
216 13-02-2019 17:55:00 4 C 89 % 2.36 C
217 13-02-2019 18:00:00 3.8 C 90 % 2.31 C
218 13-02-2019 18:05:00 3.7 C 90 % 2.22 C
219 13-02-2019 18:10:00 3.6 C 90 % 2.12 C
220 13-02-2019 18:15:00 3.4 C 90 % 1.92 C
221 13-02-2019 18:20:00 3.3 C 90 % 1.82 C
222 13-02-2019 18:25:00 3.3 C 91 % 1.98 C
223 13-02-2019 18:30:00 3.2 C 91 % 1.88 C
224 13-02-2019 18:35:00 3.1 C 91 % 1.78 C
225 13-02-2019 18:40:00 2.9 C 90 % 1.43 C
Sensor: Nr:Datum:Temp:Feuchte:Taupunkt:
Aussen-T/F 226 13-02-2019 18:45:00 2.8 C 91 % 1.48 C
227 13-02-2019 18:50:00 2.7 C 91 % 1.38 C
228 13-02-2019 18:55:00 2.7 C 91 % 1.38 C
229 13-02-2019 19:00:00 2.6 C 91 % 1.28 C
230 13-02-2019 19:05:00 2.4 C 91 % 1.08 C
231 13-02-2019 19:10:00 2.3 C 91 % 0.99 C
232 13-02-2019 19:15:00 2.1 C 91 % 0.79 C
233 13-02-2019 19:20:00 1.9 C 91 % 0.59 C
234 13-02-2019 19:25:00 1.7 C 91 % 0.39 C
235 13-02-2019 19:30:00 1.6 C 92 % 0.44 C
236 13-02-2019 19:35:00 1.6 C 92 % 0.44 C
237 13-02-2019 19:40:00 1.6 C 93 % 0.59 C
238 13-02-2019 19:45:00 1.6 C 93 % 0.59 C
239 13-02-2019 19:50:00 1.4 C 92 % 0.25 C
240 13-02-2019 19:55:00 1.4 C 92 % 0.25 C
241 13-02-2019 20:00:00 1.4 C 93 % 0.4 C
242 13-02-2019 20:05:00 1.3 C 93 % 0.3 C
243 13-02-2019 20:10:00 1.3 C 93 % 0.3 C
244 13-02-2019 20:15:00 1.3 C 93 % 0.3 C
245 13-02-2019 20:20:00 1.2 C 93 % 0.2 C
246 13-02-2019 20:25:00 1.2 C 93 % 0.2 C
247 13-02-2019 20:30:00 1.2 C 93 % 0.2 C
248 13-02-2019 20:35:00 1.1 C 93 % 0.1 C
249 13-02-2019 20:40:00 1.1 C 93 % 0.1 C
250 13-02-2019 20:45:00 1 C 93 % 0 C
Sensor: Nr:Datum:Temp:Feuchte:Taupunkt:
Aussen-T/F 251 13-02-2019 20:50:00 0.9 C 93 % -0.1 C
252 13-02-2019 20:55:00 0.8 C 92 % -0.35 C
253 13-02-2019 21:00:00 0.8 C 93 % -0.2 C
254 13-02-2019 21:05:00 0.7 C 93 % -0.3 C
255 13-02-2019 21:10:00 0.8 C 93 % -0.2 C
256 13-02-2019 21:15:00 0.9 C 93 % -0.1 C
257 13-02-2019 21:20:00 0.8 C 92 % -0.35 C
258 13-02-2019 21:25:00 0.7 C 92 % -0.45 C
259 13-02-2019 21:30:00 0.5 C 92 % -0.65 C
260 13-02-2019 21:35:00 0.4 C 92 % -0.74 C
261 13-02-2019 21:40:00 0.4 C 92 % -0.74 C
262 13-02-2019 21:45:00 0.3 C 92 % -0.84 C
263 13-02-2019 21:50:00 0.2 C 92 % -0.94 C
264 13-02-2019 21:55:00 0.2 C 92 % -0.94 C
265 13-02-2019 22:00:00 0.2 C 93 % -0.79 C
266 13-02-2019 22:05:00 0.2 C 93 % -0.79 C
267 13-02-2019 22:10:00 0.2 C 93 % -0.79 C
268 13-02-2019 22:15:00 0.1 C 93 % -0.89 C
269 13-02-2019 22:20:00 0.2 C 93 % -0.79 C
270 13-02-2019 22:25:00 0.2 C 93 % -0.79 C
271 13-02-2019 22:30:00 0.3 C 93 % -0.7 C
272 13-02-2019 22:35:00 0.2 C 93 % -0.79 C
273 13-02-2019 22:40:00 0.1 C 93 % -0.89 C
274 13-02-2019 22:45:00 0 C 93 % -0.99 C
275 13-02-2019 22:50:00 -0.1 C 93 % -1.09 C
Sensor: Nr:Datum:Temp:Feuchte:Taupunkt:
Aussen-T/F 276 13-02-2019 22:55:00 -0.1 C 93 % -1.09 C
277 13-02-2019 23:00:00 -0.1 C 93 % -1.09 C
278 13-02-2019 23:05:00 -0.2 C 93 % -1.19 C
279 13-02-2019 23:10:00 -0.3 C 93 % -1.29 C
280 13-02-2019 23:15:00 -0.3 C 93 % -1.29 C
281 13-02-2019 23:20:00 -0.3 C 93 % -1.29 C
282 13-02-2019 23:25:00 -0.4 C 93 % -1.39 C
283 13-02-2019 23:30:00 -0.6 C 93 % -1.59 C
284 13-02-2019 23:35:00 -0.6 C 93 % -1.59 C
285 13-02-2019 23:40:00 -0.6 C 93 % -1.59 C
286 13-02-2019 23:45:00 -0.6 C 93 % -1.59 C
287 13-02-2019 23:50:00 -0.7 C 93 % -1.69 C
288 13-02-2019 23:55:00 -0.7 C 93 % -1.69 C
289 14-02-2019 00:00:00 -0.7 C 93 % -1.69 C
290 14-02-2019 00:05:00 -0.7 C 93 % -1.69 C
291 14-02-2019 00:10:00 -0.7 C 93 % -1.69 C
292 14-02-2019 00:15:00 -0.7 C 93 % -1.69 C
293 14-02-2019 00:20:00 -0.7 C 94 % -1.54 C
294 14-02-2019 00:25:00 -0.7 C 94 % -1.54 C
295 14-02-2019 00:30:00 -0.6 C 94 % -1.44 C
296 14-02-2019 00:35:00 -0.6 C 93 % -1.59 C
297 14-02-2019 00:40:00 -0.7 C 93 % -1.69 C
298 14-02-2019 00:45:00 -0.8 C 93 % -1.79 C
299 14-02-2019 00:50:00 -0.8 C 93 % -1.79 C
300 14-02-2019 00:55:00 -0.9 C 93 % -1.89 C
Sensor: Nr:Datum:Temp:Feuchte:Taupunkt:
Aussen-T/F 301 14-02-2019 01:00:00 -1 C 93 % -1.99 C
302 14-02-2019 01:05:00 -1 C 94 % -1.84 C
303 14-02-2019 01:10:00 -1 C 94 % -1.84 C
304 14-02-2019 01:15:00 -1 C 94 % -1.84 C
305 14-02-2019 01:20:00 -1.1 C 94 % -1.94 C
306 14-02-2019 01:25:00 -1.1 C 94 % -1.94 C
307 14-02-2019 01:30:00 -1.1 C 94 % -1.94 C
308 14-02-2019 01:35:00 -1.1 C 94 % -1.94 C
309 14-02-2019 01:40:00 -1.1 C 94 % -1.94 C
310 14-02-2019 01:45:00 -1.1 C 94 % -1.94 C
311 14-02-2019 01:50:00 -1.1 C 94 % -1.94 C
312 14-02-2019 01:55:00 -1 C 94 % -1.84 C
313 14-02-2019 02:00:00 -1.1 C 94 % -1.94 C
314 14-02-2019 02:05:00 -1.1 C 94 % -1.94 C
315 14-02-2019 02:10:00 -1.2 C 94 % -2.04 C
316 14-02-2019 02:15:00 -1.2 C 94 % -2.04 C
317 14-02-2019 02:20:00 -1.2 C 94 % -2.04 C
318 14-02-2019 02:25:00 -1.1 C 94 % -1.94 C
319 14-02-2019 02:30:00 -1 C 95 % -1.7 C
320 14-02-2019 02:35:00 -0.9 C 95 % -1.6 C
321 14-02-2019 02:40:00 -0.9 C 95 % -1.6 C
322 14-02-2019 02:45:00 -1 C 94 % -1.84 C
323 14-02-2019 02:50:00 -1.2 C 94 % -2.04 C
324 14-02-2019 02:55:00 -1.3 C 94 % -2.14 C
325 14-02-2019 03:00:00 -1.3 C 94 % -2.14 C
Sensor: Nr:Datum:Temp:Feuchte:Taupunkt:
Aussen-T/F 326 14-02-2019 03:05:00 -1.2 C 94 % -2.04 C
327 14-02-2019 03:10:00 -1.3 C 94 % -2.14 C
328 14-02-2019 03:15:00 -1.4 C 94 % -2.24 C
329 14-02-2019 03:20:00 -1.5 C 94 % -2.34 C
330 14-02-2019 03:25:00 -1.6 C 94 % -2.44 C
331 14-02-2019 03:30:00 -1.6 C 94 % -2.44 C
332 14-02-2019 03:35:00 -1.7 C 94 % -2.54 C
333 14-02-2019 03:40:00 -1.6 C 95 % -2.29 C
334 14-02-2019 03:45:00 -1.7 C 94 % -2.54 C
335 14-02-2019 03:50:00 -1.7 C 94 % -2.54 C
336 14-02-2019 03:55:00 -1.8 C 94 % -2.64 C
337 14-02-2019 04:00:00 -1.8 C 94 % -2.64 C
338 14-02-2019 04:05:00 -1.8 C 94 % -2.64 C
339 14-02-2019 04:10:00 -1.8 C 95 % -2.49 C
340 14-02-2019 04:15:00 -1.8 C 95 % -2.49 C
341 14-02-2019 04:20:00 -1.8 C 95 % -2.49 C
342 14-02-2019 04:25:00 -1.8 C 95 % -2.49 C
343 14-02-2019 04:30:00 -1.8 C 95 % -2.49 C
344 14-02-2019 04:35:00 -1.8 C 95 % -2.49 C
345 14-02-2019 04:40:00 -1.7 C 95 % -2.39 C
346 14-02-2019 04:45:00 -1.7 C 95 % -2.39 C
347 14-02-2019 04:50:00 -1.7 C 95 % -2.39 C
348 14-02-2019 04:55:00 -1.8 C 95 % -2.49 C
349 14-02-2019 05:00:00 -1.9 C 95 % -2.59 C
350 14-02-2019 05:05:00 -1.9 C 95 % -2.59 C
Sensor: Nr:Datum:Temp:Feuchte:Taupunkt:
Aussen-T/F 351 14-02-2019 05:10:00 -1.9 C 95 % -2.59 C
352 14-02-2019 05:15:00 -1.9 C 95 % -2.59 C
353 14-02-2019 05:20:00 -2 C 95 % -2.69 C
354 14-02-2019 05:25:00 -2.1 C 95 % -2.79 C
355 14-02-2019 05:30:00 -2 C 95 % -2.69 C
356 14-02-2019 05:35:00 -1.8 C 95 % -2.49 C
357 14-02-2019 05:40:00 -1.8 C 95 % -2.49 C
358 14-02-2019 05:45:00 -2 C 95 % -2.69 C
359 14-02-2019 05:50:00 -2.1 C 95 % -2.79 C
360 14-02-2019 05:55:00 -2.2 C 95 % -2.89 C
361 14-02-2019 06:00:00 -2.3 C 95 % -2.99 C
362 14-02-2019 06:05:00 -2.4 C 95 % -3.09 C
363 14-02-2019 06:10:00 -2.4 C 95 % -3.09 C
364 14-02-2019 06:15:00 -2.4 C 95 % -3.09 C
365 14-02-2019 06:20:00 -2.6 C 95 % -3.29 C
366 14-02-2019 06:25:00 -2.6 C 95 % -3.29 C
367 14-02-2019 06:30:00 -2.4 C 95 % -3.09 C
368 14-02-2019 06:35:00 -2.4 C 95 % -3.09 C
369 14-02-2019 06:40:00 -2.4 C 95 % -3.09 C
370 14-02-2019 06:45:00 -2.4 C 95 % -3.09 C
371 14-02-2019 06:50:00 -2.5 C 95 % -3.19 C
372 14-02-2019 06:55:00 -2.6 C 95 % -3.29 C
373 14-02-2019 07:00:00 -2.7 C 95 % -3.39 C
374 14-02-2019 07:05:00 -2.7 C 95 % -3.39 C
375 14-02-2019 07:10:00 -2.7 C 95 % -3.39 C
Sensor: Nr:Datum:Temp:Feuchte:Taupunkt:
Aussen-T/F 376 14-02-2019 07:15:00 -2.7 C 95 % -3.39 C
377 14-02-2019 07:20:00 -2.7 C 95 % -3.39 C
378 14-02-2019 07:25:00 -2.6 C 95 % -3.29 C
379 14-02-2019 07:30:00 -2.6 C 95 % -3.29 C
380 14-02-2019 07:35:00 -2.7 C 95 % -3.39 C
381 14-02-2019 07:40:00 -2.6 C 95 % -3.29 C
382 14-02-2019 07:45:00 -2.6 C 95 % -3.29 C
383 14-02-2019 07:50:00 -2.6 C 96 % -3.15 C
384 14-02-2019 07:55:00 -2.6 C 96 % -3.15 C
385 14-02-2019 08:00:00 -2.6 C 95 % -3.29 C
386 14-02-2019 08:05:00 -2.6 C 95 % -3.29 C
387 14-02-2019 08:10:00 -2.6 C 95 % -3.29 C
388 14-02-2019 08:15:00 -2.6 C 95 % -3.29 C
389 14-02-2019 08:20:00 -2.6 C 95 % -3.29 C
390 14-02-2019 08:25:00 -2.6 C 96 % -3.15 C
391 14-02-2019 08:30:00 -2.4 C 96 % -2.95 C
392 14-02-2019 08:35:00 -2.3 C 96 % -2.85 C
393 14-02-2019 08:40:00 -2.3 C 96 % -2.85 C
394 14-02-2019 08:45:00 -2.2 C 96 % -2.75 C
395 14-02-2019 08:50:00 -2.2 C 96 % -2.75 C
396 14-02-2019 08:55:00 -2.2 C 96 % -2.75 C
397 14-02-2019 09:00:00 -2.1 C 96 % -2.65 C
398 14-02-2019 09:05:00 -2.1 C 96 % -2.65 C
399 14-02-2019 09:10:00 -2.1 C 96 % -2.65 C
400 14-02-2019 09:15:00 -2.1 C 96 % -2.65 C
Sensor: Nr:Datum:Temp:Feuchte:Taupunkt:
Aussen-T/F 401 14-02-2019 09:20:00 -2.1 C 96 % -2.65 C
402 14-02-2019 09:25:00 -2.1 C 96 % -2.65 C
403 14-02-2019 09:30:00 -2 C 96 % -2.55 C
404 14-02-2019 09:35:00 -2.1 C 96 % -2.65 C
405 14-02-2019 09:40:00 -2.1 C 96 % -2.65 C
406 14-02-2019 09:45:00 -2 C 96 % -2.55 C
407 14-02-2019 09:50:00 -2.1 C 96 % -2.65 C
408 14-02-2019 09:55:00 -2.1 C 96 % -2.65 C
409 14-02-2019 10:00:00 -2.1 C 96 % -2.65 C
410 14-02-2019 10:05:00 -2.1 C 96 % -2.65 C
411 14-02-2019 10:10:00 -2 C 96 % -2.55 C
412 14-02-2019 10:15:00 -1.9 C 96 % -2.45 C
413 14-02-2019 10:20:00 -1.8 C 96 % -2.35 C
414 14-02-2019 10:25:00 -1.7 C 96 % -2.25 C
415 14-02-2019 10:30:00 -1.6 C 96 % -2.15 C
416 14-02-2019 10:35:00 -1.5 C 96 % -2.05 C
417 14-02-2019 10:40:00 -1.4 C 96 % -1.95 C
418 14-02-2019 10:45:00 -1.4 C 96 % -1.95 C
419 14-02-2019 10:50:00 -1.4 C 96 % -1.95 C
420 14-02-2019 10:55:00 -1.4 C 96 % -1.95 C
421 14-02-2019 11:00:00 -1.3 C 96 % -1.85 C
422 14-02-2019 11:05:00 -1.3 C 96 % -1.85 C
423 14-02-2019 11:10:00 -1.2 C 96 % -1.75 C
424 14-02-2019 11:15:00 -1.2 C 96 % -1.75 C
425 14-02-2019 11:20:00 -1.1 C 96 % -1.66 C
Sensor: Nr:Datum:Temp:Feuchte:Taupunkt:
Aussen-T/F 426 14-02-2019 11:25:00 -1.1 C 96 % -1.66 C
427 14-02-2019 11:30:00 -0.9 C 97 % -1.32 C
428 14-02-2019 11:35:00 -0.8 C 96 % -1.36 C
429 14-02-2019 11:40:00 -0.7 C 97 % -1.12 C
430 14-02-2019 11:45:00 -0.6 C 97 % -1.02 C
431 14-02-2019 11:50:00 -0.4 C 97 % -0.82 C
432 14-02-2019 11:55:00 -0.2 C 97 % -0.62 C
433 14-02-2019 12:00:00 -0.1 C 97 % -0.52 C
434 14-02-2019 12:05:00 0.1 C 97 % -0.32 C
435 14-02-2019 12:10:00 0.1 C 97 % -0.32 C
436 14-02-2019 12:15:00 0.2 C 97 % -0.22 C
437 14-02-2019 12:20:00 0.3 C 97 % -0.12 C
438 14-02-2019 12:25:00 0.4 C 97 % -0.02 C
439 14-02-2019 12:30:00 0.6 C 97 % 0.18 C
440 14-02-2019 12:35:00 0.8 C 97 % 0.38 C
441 14-02-2019 12:40:00 1.1 C 97 % 0.68 C
442 14-02-2019 12:45:00 1.3 C 97 % 0.88 C
443 14-02-2019 12:50:00 1.6 C 97 % 1.18 C
444 14-02-2019 12:55:00 1.7 C 97 % 1.28 C
445 14-02-2019 13:00:00 1.8 C 97 % 1.38 C
446 14-02-2019 13:05:00 1.9 C 97 % 1.48 C
447 14-02-2019 13:10:00 2.1 C 97 % 1.67 C
448 14-02-2019 13:15:00 2.2 C 97 % 1.77 C
449 14-02-2019 13:20:00 2.4 C 97 % 1.97 C
450 14-02-2019 13:25:00 2.6 C 97 % 2.17 C
Sensor: Nr:Datum:Temp:Feuchte:Taupunkt:
Aussen-T/F 451 14-02-2019 13:30:00 2.8 C 97 % 2.37 C
452 14-02-2019 13:35:00 3 C 97 % 2.57 C
453 14-02-2019 13:40:00 3.3 C 97 % 2.87 C
454 14-02-2019 13:45:00 3.5 C 97 % 3.07 C
455 14-02-2019 13:50:00 3.7 C 97 % 3.27 C
456 14-02-2019 13:55:00 3.8 C 96 % 3.22 C
457 14-02-2019 14:00:00 3.9 C 96 % 3.32 C
458 14-02-2019 14:05:00 4.2 C 96 % 3.62 C
459 14-02-2019 14:10:00 4.3 C 96 % 3.72 C
460 14-02-2019 14:15:00 4.4 C 95 % 3.67 C
461 14-02-2019 14:20:00 4.4 C 94 % 3.52 C
462 14-02-2019 14:25:00 4.5 C 94 % 3.62 C
463 14-02-2019 14:30:00 4.6 C 94 % 3.72 C
464 14-02-2019 14:35:00 4.8 C 94 % 3.92 C
465 14-02-2019 14:40:00 4.9 C 94 % 4.02 C
466 14-02-2019 14:45:00 5.1 C 94 % 4.22 C
467 14-02-2019 14:50:00 5.3 C 94 % 4.41 C
468 14-02-2019 14:55:00 5.5 C 93 % 4.46 C
469 14-02-2019 15:00:00 5.7 C 93 % 4.66 C
470 14-02-2019 15:05:00 6 C 93 % 4.96 C
471 14-02-2019 15:10:00 6.3 C 93 % 5.25 C
472 14-02-2019 15:15:00 6.6 C 92 % 5.4 C
473 14-02-2019 15:20:00 6.7 C 91 % 5.34 C
474 14-02-2019 15:25:00 6.7 C 90 % 5.18 C
475 14-02-2019 15:30:00 6.7 C 89 % 5.02 C
Sensor: Nr:Datum:Temp:Feuchte:Taupunkt:
Aussen-T/F 476 14-02-2019 15:35:00 6.7 C 89 % 5.02 C
477 14-02-2019 15:40:00 6.7 C 89 % 5.02 C
478 14-02-2019 15:45:00 6.6 C 89 % 4.92 C
479 14-02-2019 15:50:00 6.6 C 88 % 4.76 C
480 14-02-2019 15:55:00 6.5 C 88 % 4.66 C
481 14-02-2019 16:00:00 6.4 C 88 % 4.56 C
482 14-02-2019 16:05:00 6.4 C 88 % 4.56 C
483 14-02-2019 16:10:00 6.3 C 88 % 4.46 C
484 14-02-2019 16:15:00 6.3 C 88 % 4.46 C
485 14-02-2019 16:20:00 6.2 C 88 % 4.36 C
486 14-02-2019 16:25:00 6.1 C 88 % 4.27 C
487 14-02-2019 16:30:00 6.1 C 88 % 4.27 C
488 14-02-2019 16:35:00 5.9 C 88 % 4.07 C
489 14-02-2019 16:40:00 5.9 C 88 % 4.07 C
490 14-02-2019 16:45:00 5.8 C 88 % 3.97 C
491 14-02-2019 16:50:00 5.8 C 88 % 3.97 C
492 14-02-2019 16:55:00 5.8 C 89 % 4.13 C
493 14-02-2019 17:00:00 5.8 C 88 % 3.97 C
494 14-02-2019 17:05:00 5.8 C 88 % 3.97 C
495 14-02-2019 17:10:00 5.8 C 88 % 3.97 C
496 14-02-2019 17:15:00 5.7 C 87 % 3.71 C
497 14-02-2019 17:20:00 5.7 C 88 % 3.87 C
498 14-02-2019 17:25:00 5.7 C 88 % 3.87 C
499 14-02-2019 17:30:00 5.7 C 87 % 3.71 C
500 14-02-2019 17:35:00 5.6 C 88 % 3.77 C
Sensor: Nr:Datum:Temp:Feuchte:Taupunkt:
Aussen-T/F 501 14-02-2019 17:40:00 5.6 C 88 % 3.77 C
502 14-02-2019 17:45:00 5.4 C 88 % 3.58 C
503 14-02-2019 17:50:00 5.4 C 88 % 3.58 C
504 14-02-2019 17:55:00 5.3 C 88 % 3.48 C
505 14-02-2019 18:00:00 5.2 C 88 % 3.38 C
506 14-02-2019 18:05:00 5 C 87 % 3.02 C
507 14-02-2019 18:10:00 4.9 C 87 % 2.92 C
508 14-02-2019 18:15:00 4.8 C 87 % 2.82 C
509 14-02-2019 18:20:00 4.7 C 87 % 2.73 C
510 14-02-2019 18:25:00 4.6 C 87 % 2.63 C
511 14-02-2019 18:30:00 4.5 C 87 % 2.53 C
512 14-02-2019 18:35:00 4.4 C 87 % 2.43 C
513 14-02-2019 18:40:00 4.3 C 86 % 2.17 C
514 14-02-2019 18:45:00 4.3 C 86 % 2.17 C
515 14-02-2019 18:50:00 4.2 C 85 % 1.91 C
516 14-02-2019 18:55:00 4.1 C 85 % 1.81 C
517 14-02-2019 19:00:00 3.9 C 85 % 1.61 C
518 14-02-2019 19:05:00 3.8 C 85 % 1.52 C
519 14-02-2019 19:10:00 3.6 C 85 % 1.32 C
520 14-02-2019 19:15:00 3.4 C 85 % 1.12 C
521 14-02-2019 19:20:00 3.3 C 85 % 1.03 C
522 14-02-2019 19:25:00 3.2 C 85 % 0.93 C
523 14-02-2019 19:30:00 3.1 C 85 % 0.83 C
524 14-02-2019 19:35:00 3.1 C 85 % 0.83 C
525 14-02-2019 19:40:00 3 C 85 % 0.73 C
Sensor: Nr:Datum:Temp:Feuchte:Taupunkt:
Aussen-T/F 526 14-02-2019 19:45:00 3 C 86 % 0.89 C
527 14-02-2019 19:50:00 3.1 C 86 % 0.99 C
528 14-02-2019 19:55:00 3.2 C 86 % 1.09 C
529 14-02-2019 20:00:00 3.2 C 86 % 1.09 C
530 14-02-2019 20:05:00 3.3 C 87 % 1.35 C
531 14-02-2019 20:10:00 3.3 C 87 % 1.35 C
532 14-02-2019 20:15:00 3.2 C 87 % 1.25 C
533 14-02-2019 20:20:00 3.1 C 87 % 1.15 C
534 14-02-2019 20:25:00 2.9 C 86 % 0.8 C
535 14-02-2019 20:30:00 2.8 C 86 % 0.7 C
536 14-02-2019 20:35:00 2.6 C 86 % 0.5 C
537 14-02-2019 20:40:00 2.4 C 87 % 0.46 C
538 14-02-2019 20:45:00 2.3 C 88 % 0.52 C
539 14-02-2019 20:50:00 2.2 C 88 % 0.42 C
540 14-02-2019 20:55:00 2.1 C 88 % 0.33 C
541 14-02-2019 21:00:00 2 C 89 % 0.38 C
542 14-02-2019 21:05:00 1.9 C 89 % 0.28 C
543 14-02-2019 21:10:00 1.8 C 89 % 0.19 C
544 14-02-2019 21:15:00 1.8 C 90 % 0.34 C
545 14-02-2019 21:20:00 1.8 C 90 % 0.34 C
546 14-02-2019 21:25:00 1.6 C 89 % -0.01 C
547 14-02-2019 21:30:00 1.5 C 89 % -0.11 C
548 14-02-2019 21:35:00 1.4 C 90 % -0.06 C
549 14-02-2019 21:40:00 1.4 C 89 % -0.21 C
550 14-02-2019 21:45:00 1.2 C 89 % -0.41 C
Sensor: Nr:Datum:Temp:Feuchte:Taupunkt:
Aussen-T/F 551 14-02-2019 21:50:00 1.2 C 90 % -0.25 C
552 14-02-2019 21:55:00 1 C 90 % -0.45 C
553 14-02-2019 22:00:00 0.9 C 90 % -0.55 C
554 14-02-2019 22:05:00 0.8 C 90 % -0.65 C
555 14-02-2019 22:10:00 0.8 C 91 % -0.5 C
556 14-02-2019 22:15:00 0.7 C 91 % -0.6 C
557 14-02-2019 22:20:00 0.6 C 91 % -0.7 C
558 14-02-2019 22:25:00 0.5 C 91 % -0.79 C
559 14-02-2019 22:30:00 0.4 C 91 % -0.89 C
560 14-02-2019 22:35:00 0.3 C 91 % -0.99 C
561 14-02-2019 22:40:00 0.3 C 92 % -0.84 C
562 14-02-2019 22:45:00 0.2 C 92 % -0.94 C
563 14-02-2019 22:50:00 0.2 C 92 % -0.94 C
564 14-02-2019 22:55:00 0.2 C 92 % -0.94 C
565 14-02-2019 23:00:00 0.1 C 92 % -1.04 C
566 14-02-2019 23:05:00 0.1 C 93 % -0.89 C
567 14-02-2019 23:10:00 0.1 C 93 % -0.89 C
568 14-02-2019 23:15:00 0.1 C 93 % -0.89 C
569 14-02-2019 23:20:00 0.1 C 93 % -0.89 C
570 14-02-2019 23:25:00 0 C 93 % -0.99 C
571 14-02-2019 23:30:00 -0.1 C 93 % -1.09 C
572 14-02-2019 23:35:00 -0.2 C 93 % -1.19 C
573 14-02-2019 23:40:00 -0.2 C 93 % -1.19 C
574 14-02-2019 23:45:00 -0.2 C 93 % -1.19 C
575 14-02-2019 23:50:00 -0.2 C 93 % -1.19 C
Sensor: Nr:Datum:Temp:Feuchte:Taupunkt:
Aussen-T/F 576 14-02-2019 23:55:00 -0.3 C 93 % -1.29 C
577 15-02-2019 00:00:00 -0.3 C 93 % -1.29 C
578 15-02-2019 00:05:00 -0.4 C 93 % -1.39 C
579 15-02-2019 00:10:00 -0.4 C 94 % -1.25 C
580 15-02-2019 00:15:00 -0.4 C 94 % -1.25 C
581 15-02-2019 00:20:00 -0.4 C 94 % -1.25 C
582 15-02-2019 00:25:00 -0.6 C 93 % -1.59 C
583 15-02-2019 00:30:00 -0.6 C 94 % -1.44 C
584 15-02-2019 00:35:00 -0.7 C 94 % -1.54 C
585 15-02-2019 00:40:00 -0.7 C 94 % -1.54 C
586 15-02-2019 00:45:00 -0.7 C 94 % -1.54 C
587 15-02-2019 00:50:00 -0.7 C 94 % -1.54 C
588 15-02-2019 00:55:00 -0.7 C 94 % -1.54 C
589 15-02-2019 01:00:00 -0.7 C 94 % -1.54 C
590 15-02-2019 01:05:00 -0.8 C 94 % -1.64 C
591 15-02-2019 01:10:00 -0.8 C 94 % -1.64 C
592 15-02-2019 01:15:00 -0.8 C 94 % -1.64 C
593 15-02-2019 01:20:00 -0.9 C 94 % -1.74 C
594 15-02-2019 01:25:00 -1 C 94 % -1.84 C
595 15-02-2019 01:30:00 -1 C 94 % -1.84 C
596 15-02-2019 01:35:00 -1 C 94 % -1.84 C
597 15-02-2019 01:40:00 -1 C 94 % -1.84 C
598 15-02-2019 01:45:00 -1 C 95 % -1.7 C
599 15-02-2019 01:50:00 -1.1 C 95 % -1.8 C
600 15-02-2019 01:55:00 -1.1 C 95 % -1.8 C
Sensor: Nr:Datum:Temp:Feuchte:Taupunkt:
Aussen-T/F 601 15-02-2019 02:00:00 -1.1 C 95 % -1.8 C
602 15-02-2019 02:05:00 -1 C 95 % -1.7 C
603 15-02-2019 02:10:00 -1 C 95 % -1.7 C
604 15-02-2019 02:15:00 -1.1 C 94 % -1.94 C
605 15-02-2019 02:20:00 -1.1 C 94 % -1.94 C
606 15-02-2019 02:25:00 -1.1 C 95 % -1.8 C
607 15-02-2019 02:30:00 -1.1 C 95 % -1.8 C
608 15-02-2019 02:35:00 -1.2 C 95 % -1.9 C
609 15-02-2019 02:40:00 -1.2 C 95 % -1.9 C
610 15-02-2019 02:45:00 -1.3 C 95 % -2 C
611 15-02-2019 02:50:00 -1.3 C 95 % -2 C
612 15-02-2019 02:55:00 -1.3 C 95 % -2 C
613 15-02-2019 03:00:00 -1.3 C 95 % -2 C
614 15-02-2019 03:05:00 -1.3 C 95 % -2 C
615 15-02-2019 03:10:00 -1.4 C 95 % -2.1 C
616 15-02-2019 03:15:00 -1.4 C 95 % -2.1 C
617 15-02-2019 03:20:00 -1.4 C 95 % -2.1 C
618 15-02-2019 03:25:00 -1.4 C 95 % -2.1 C
619 15-02-2019 03:30:00 -1.5 C 95 % -2.19 C
620 15-02-2019 03:35:00 -1.5 C 95 % -2.19 C
621 15-02-2019 03:40:00 -1.5 C 95 % -2.19 C
622 15-02-2019 03:45:00 -1.5 C 95 % -2.19 C
623 15-02-2019 03:50:00 -1.4 C 95 % -2.1 C
624 15-02-2019 03:55:00 -1.3 C 95 % -2 C
625 15-02-2019 04:00:00 -1.2 C 95 % -1.9 C
Sensor: Nr:Datum:Temp:Feuchte:Taupunkt:
Aussen-T/F 626 15-02-2019 04:05:00 -1.2 C 95 % -1.9 C
627 15-02-2019 04:10:00 -1.2 C 95 % -1.9 C
628 15-02-2019 04:15:00 -1.3 C 95 % -2 C
629 15-02-2019 04:20:00 -1.4 C 95 % -2.1 C
630 15-02-2019 04:25:00 -1.5 C 95 % -2.19 C
631 15-02-2019 04:30:00 -1.6 C 95 % -2.29 C
632 15-02-2019 04:35:00 -1.7 C 95 % -2.39 C
633 15-02-2019 04:40:00 -1.8 C 95 % -2.49 C
634 15-02-2019 04:45:00 -1.8 C 95 % -2.49 C
635 15-02-2019 04:50:00 -1.7 C 95 % -2.39 C
636 15-02-2019 04:55:00 -1.7 C 95 % -2.39 C
637 15-02-2019 05:00:00 -1.8 C 95 % -2.49 C
638 15-02-2019 05:05:00 -1.8 C 95 % -2.49 C
639 15-02-2019 05:10:00 -1.9 C 95 % -2.59 C
640 15-02-2019 05:15:00 -1.9 C 95 % -2.59 C
641 15-02-2019 05:20:00 -1.8 C 95 % -2.49 C
642 15-02-2019 05:25:00 -1.9 C 95 % -2.59 C
643 15-02-2019 05:30:00 -1.9 C 95 % -2.59 C
644 15-02-2019 05:35:00 -1.9 C 95 % -2.59 C
645 15-02-2019 05:40:00 -1.9 C 95 % -2.59 C
646 15-02-2019 05:45:00 -1.9 C 95 % -2.59 C
647 15-02-2019 05:50:00 -1.9 C 95 % -2.59 C
648 15-02-2019 05:55:00 -2 C 95 % -2.69 C
649 15-02-2019 06:00:00 -2 C 95 % -2.69 C
650 15-02-2019 06:05:00 -2.1 C 95 % -2.79 C
Sensor: Nr:Datum:Temp:Feuchte:Taupunkt:
Aussen-T/F 651 15-02-2019 06:10:00 -2.1 C 95 % -2.79 C
652 15-02-2019 06:15:00 -2.1 C 95 % -2.79 C
653 15-02-2019 06:20:00 -2.2 C 95 % -2.89 C
654 15-02-2019 06:25:00 -2.2 C 95 % -2.89 C
655 15-02-2019 06:30:00 -2.1 C 95 % -2.79 C
656 15-02-2019 06:35:00 -2.1 C 95 % -2.79 C
657 15-02-2019 06:40:00 -2 C 95 % -2.69 C
658 15-02-2019 06:45:00 -1.9 C 96 % -2.45 C
659 15-02-2019 06:50:00 -2 C 96 % -2.55 C
660 15-02-2019 06:55:00 -2.1 C 95 % -2.79 C
661 15-02-2019 07:00:00 -2.2 C 95 % -2.89 C
662 15-02-2019 07:05:00 -2.2 C 95 % -2.89 C
663 15-02-2019 07:10:00 -2.3 C 95 % -2.99 C
664 15-02-2019 07:15:00 -2.3 C 95 % -2.99 C
665 15-02-2019 07:20:00 -2.4 C 95 % -3.09 C
666 15-02-2019 07:25:00 -2.4 C 95 % -3.09 C
667 15-02-2019 07:30:00 -2.5 C 95 % -3.19 C
668 15-02-2019 07:35:00 -2.5 C 95 % -3.19 C
669 15-02-2019 07:40:00 -2.5 C 95 % -3.19 C
670 15-02-2019 07:45:00 -2.5 C 95 % -3.19 C
671 15-02-2019 07:50:00 -2.5 C 95 % -3.19 C
672 15-02-2019 07:55:00 -2.5 C 95 % -3.19 C
673 15-02-2019 08:00:00 -2.4 C 96 % -2.95 C
674 15-02-2019 08:05:00 -2.4 C 96 % -2.95 C
675 15-02-2019 08:10:00 -2.3 C 96 % -2.85 C
Sensor: Nr:Datum:Temp:Feuchte:Taupunkt:
Aussen-T/F 676 15-02-2019 08:15:00 -2.2 C 96 % -2.75 C
677 15-02-2019 08:20:00 -2.2 C 96 % -2.75 C
678 15-02-2019 08:25:00 -2.1 C 96 % -2.65 C
679 15-02-2019 08:30:00 -2.1 C 96 % -2.65 C
680 15-02-2019 08:35:00 -2.1 C 96 % -2.65 C
681 15-02-2019 08:40:00 -2.1 C 96 % -2.65 C
682 15-02-2019 08:45:00 -2.1 C 96 % -2.65 C
683 15-02-2019 08:50:00 -2.2 C 96 % -2.75 C
684 15-02-2019 08:55:00 -2.2 C 96 % -2.75 C
685 15-02-2019 09:00:00 -2.1 C 96 % -2.65 C
686 15-02-2019 09:05:00 -2.1 C 96 % -2.65 C
687 15-02-2019 09:10:00 -2 C 96 % -2.55 C
688 15-02-2019 09:15:00 -1.9 C 96 % -2.45 C
689 15-02-2019 09:20:00 -1.8 C 96 % -2.35 C
690 15-02-2019 09:25:00 -1.8 C 96 % -2.35 C
691 15-02-2019 09:30:00 -1.7 C 96 % -2.25 C
692 15-02-2019 09:35:00 -1.5 C 96 % -2.05 C
693 15-02-2019 09:40:00 -1.5 C 96 % -2.05 C
694 15-02-2019 09:45:00 -1.4 C 96 % -1.95 C
695 15-02-2019 09:50:00 -1.3 C 96 % -1.85 C
696 15-02-2019 09:55:00 -1.2 C 96 % -1.75 C
697 15-02-2019 10:00:00 -1.2 C 96 % -1.75 C
698 15-02-2019 10:05:00 -1.1 C 96 % -1.66 C
699 15-02-2019 10:10:00 -1 C 96 % -1.56 C
700 15-02-2019 10:15:00 -0.9 C 96 % -1.46 C
Sensor: Nr:Datum:Temp:Feuchte:Taupunkt:
Aussen-T/F 701 15-02-2019 10:20:00 -0.9 C 96 % -1.46 C
702 15-02-2019 10:25:00 -0.8 C 96 % -1.36 C
703 15-02-2019 10:30:00 -0.7 C 96 % -1.26 C
704 15-02-2019 10:35:00 -0.6 C 96 % -1.16 C
705 15-02-2019 10:40:00 -0.5 C 96 % -1.06 C
706 15-02-2019 10:45:00 -0.3 C 97 % -0.72 C
707 15-02-2019 10:50:00 -0.3 C 97 % -0.72 C
708 15-02-2019 10:55:00 -0.1 C 96 % -0.66 C
709 15-02-2019 11:00:00 0.1 C 97 % -0.32 C
710 15-02-2019 11:05:00 0.3 C 97 % -0.12 C
711 15-02-2019 11:10:00 0.6 C 97 % 0.18 C
712 15-02-2019 11:15:00 0.8 C 97 % 0.38 C
713 15-02-2019 11:20:00 1 C 97 % 0.58 C
714 15-02-2019 11:25:00 1.2 C 97 % 0.78 C
715 15-02-2019 11:30:00 1.4 C 97 % 0.98 C
716 15-02-2019 11:35:00 1.7 C 97 % 1.28 C
717 15-02-2019 11:40:00 1.8 C 97 % 1.38 C
718 15-02-2019 11:45:00 2 C 97 % 1.58 C
719 15-02-2019 11:50:00 2.1 C 97 % 1.67 C
720 15-02-2019 11:55:00 2.2 C 97 % 1.77 C
721 15-02-2019 12:00:00 2.2 C 97 % 1.77 C
722 15-02-2019 12:05:00 2.3 C 97 % 1.87 C
723 15-02-2019 12:10:00 2.6 C 97 % 2.17 C
724 15-02-2019 12:15:00 2.7 C 97 % 2.27 C
725 15-02-2019 12:20:00 2.9 C 97 % 2.47 C
Sensor: Nr:Datum:Temp:Feuchte:Taupunkt:
Aussen-T/F 726 15-02-2019 12:25:00 3.2 C 97 % 2.77 C
727 15-02-2019 12:30:00 3.6 C 97 % 3.17 C
728 15-02-2019 12:35:00 3.8 C 97 % 3.37 C
729 15-02-2019 12:40:00 4.1 C 97 % 3.67 C
730 15-02-2019 12:45:00 4.3 C 96 % 3.72 C
731 15-02-2019 12:50:00 4.6 C 96 % 4.02 C
732 15-02-2019 12:55:00 4.7 C 95 % 3.97 C
733 15-02-2019 13:00:00 4.8 C 95 % 4.07 C
734 15-02-2019 13:05:00 4.9 C 94 % 4.02 C
735 15-02-2019 13:10:00 5.1 C 94 % 4.22 C
736 15-02-2019 13:15:00 5.3 C 94 % 4.41 C
737 15-02-2019 13:20:00 5.5 C 93 % 4.46 C
738 15-02-2019 13:25:00 5.7 C 93 % 4.66 C
739 15-02-2019 13:30:00 5.9 C 92 % 4.7 C
740 15-02-2019 13:35:00 6.2 C 91 % 4.84 C
741 15-02-2019 13:40:00 6.5 C 90 % 4.98 C
742 15-02-2019 13:45:00 6.8 C 89 % 5.12 C
743 15-02-2019 13:50:00 7.1 C 88 % 5.25 C
744 15-02-2019 13:55:00 7.4 C 86 % 5.22 C
745 15-02-2019 14:00:00 7.7 C 85 % 5.34 C
746 15-02-2019 14:05:00 7.8 C 84 % 5.27 C
747 15-02-2019 14:10:00 8.1 C 84 % 5.56 C
748 15-02-2019 14:15:00 8.2 C 83 % 5.49 C
749 15-02-2019 14:20:00 8.3 C 82 % 5.41 C
750 15-02-2019 14:25:00 8.3 C 82 % 5.41 C
Sensor: Nr:Datum:Temp:Feuchte:Taupunkt:
Aussen-T/F 751 15-02-2019 14:30:00 8.3 C 82 % 5.41 C
752 15-02-2019 14:35:00 8.3 C 82 % 5.41 C
753 15-02-2019 14:40:00 8.4 C 82 % 5.51 C
754 15-02-2019 14:45:00 8.4 C 82 % 5.51 C
755 15-02-2019 14:50:00 8.6 C 82 % 5.71 C
756 15-02-2019 14:55:00 8.7 C 82 % 5.8 C
757 15-02-2019 15:00:00 8.8 C 81 % 5.72 C
758 15-02-2019 15:05:00 8.9 C 80 % 5.64 C
759 15-02-2019 15:10:00 9.2 C 80 % 5.94 C
760 15-02-2019 15:15:00 9.3 C 79 % 5.85 C
761 15-02-2019 15:20:00 9.5 C 79 % 6.05 C
762 15-02-2019 15:25:00 9.6 C 78 % 5.96 C
763 15-02-2019 15:30:00 9.8 C 77 % 5.97 C
764 15-02-2019 15:35:00 9.8 C 77 % 5.97 C
765 15-02-2019 15:40:00 9.9 C 76 % 5.87 C
766 15-02-2019 15:45:00 9.9 C 75 % 5.68 C
767 15-02-2019 15:50:00 10.1 C 75 % 5.88 C
768 15-02-2019 15:55:00 10.2 C 72 % 5.39 C
769 15-02-2019 16:00:00 10.4 C 71 % 5.38 C
770 15-02-2019 16:05:00 10.8 C 64 % 4.27 C
771 15-02-2019 16:10:00 11.2 C 68 % 5.52 C
772 15-02-2019 16:15:00 11.3 C 68 % 5.62 C
773 15-02-2019 16:20:00 11.1 C 67 % 5.21 C
774 15-02-2019 16:25:00 10.9 C 68 % 5.23 C
775 15-02-2019 16:30:00 10.8 C 69 % 5.35 C
Sensor: Nr:Datum:Temp:Feuchte:Taupunkt:
Aussen-T/F 776 15-02-2019 16:35:00 10.6 C 70 % 5.36 C
777 15-02-2019 16:40:00 10.3 C 70 % 5.08 C
778 15-02-2019 16:45:00 10.2 C 70 % 4.98 C
779 15-02-2019 16:50:00 10.2 C 71 % 5.18 C
780 15-02-2019 16:55:00 10.1 C 71 % 5.09 C
781 15-02-2019 17:00:00 10 C 71 % 4.99 C
782 15-02-2019 17:05:00 9.9 C 71 % 4.9 C
783 15-02-2019 17:10:00 9.9 C 71 % 4.9 C
784 15-02-2019 17:15:00 9.8 C 71 % 4.8 C
785 15-02-2019 17:20:00 9.7 C 71 % 4.7 C
786 15-02-2019 17:25:00 9.6 C 71 % 4.61 C
787 15-02-2019 17:30:00 9.4 C 72 % 4.62 C
788 15-02-2019 17:35:00 9.3 C 71 % 4.32 C
789 15-02-2019 17:40:00 9 C 72 % 4.23 C
790 15-02-2019 17:45:00 8.8 C 73 % 4.24 C
791 15-02-2019 17:50:00 8.6 C 73 % 4.04 C
792 15-02-2019 17:55:00 8.3 C 73 % 3.75 C
793 15-02-2019 18:00:00 8.1 C 74 % 3.75 C
794 15-02-2019 18:05:00 7.8 C 74 % 3.46 C
795 15-02-2019 18:10:00 7.7 C 75 % 3.56 C
796 15-02-2019 18:15:00 7.6 C 75 % 3.46 C
797 15-02-2019 18:20:00 7.4 C 76 % 3.45 C
798 15-02-2019 18:25:00 7.3 C 76 % 3.36 C
799 15-02-2019 18:30:00 7.1 C 76 % 3.16 C
800 15-02-2019 18:35:00 7 C 77 % 3.25 C
Sensor: Nr:Datum:Temp:Feuchte:Taupunkt:
Aussen-T/F 801 15-02-2019 18:40:00 6.9 C 77 % 3.16 C
802 15-02-2019 18:45:00 6.9 C 77 % 3.16 C
803 15-02-2019 18:50:00 6.8 C 77 % 3.06 C
804 15-02-2019 18:55:00 6.7 C 78 % 3.14 C
805 15-02-2019 19:00:00 6.6 C 78 % 3.05 C
806 15-02-2019 19:05:00 6.6 C 78 % 3.05 C
807 15-02-2019 19:10:00 6.4 C 79 % 3.03 C
808 15-02-2019 19:15:00 6.3 C 79 % 2.93 C
809 15-02-2019 19:20:00 6.3 C 80 % 3.11 C
810 15-02-2019 19:25:00 6.3 C 80 % 3.11 C
811 15-02-2019 19:30:00 6.2 C 80 % 3.01 C
812 15-02-2019 19:35:00 6.2 C 81 % 3.19 C
813 15-02-2019 19:40:00 6.1 C 80 % 2.92 C
814 15-02-2019 19:45:00 5.9 C 80 % 2.72 C
815 15-02-2019 19:50:00 5.7 C 81 % 2.7 C
816 15-02-2019 19:55:00 5.4 C 81 % 2.41 C
817 15-02-2019 20:00:00 5.2 C 82 % 2.39 C
818 15-02-2019 20:05:00 5.1 C 84 % 2.63 C
819 15-02-2019 20:10:00 4.9 C 84 % 2.43 C
820 15-02-2019 20:15:00 4.8 C 84 % 2.33 C
821 15-02-2019 20:20:00 4.7 C 84 % 2.23 C
822 15-02-2019 20:25:00 4.6 C 84 % 2.14 C
823 15-02-2019 20:30:00 4.4 C 84 % 1.94 C
824 15-02-2019 20:35:00 4.2 C 85 % 1.91 C
825 15-02-2019 20:40:00 4.1 C 85 % 1.81 C
Sensor: Nr:Datum:Temp:Feuchte:Taupunkt:
Aussen-T/F 826 15-02-2019 20:45:00 3.9 C 86 % 1.78 C
827 15-02-2019 20:50:00 3.9 C 85 % 1.61 C
828 15-02-2019 20:55:00 3.8 C 87 % 1.84 C
829 15-02-2019 21:00:00 3.7 C 87 % 1.74 C
830 15-02-2019 21:05:00 3.6 C 88 % 1.8 C
831 15-02-2019 21:10:00 3.4 C 87 % 1.45 C
832 15-02-2019 21:15:00 3.3 C 88 % 1.51 C
833 15-02-2019 21:20:00 3.3 C 89 % 1.67 C
834 15-02-2019 21:25:00 3.3 C 89 % 1.67 C
835 15-02-2019 21:30:00 3.2 C 88 % 1.41 C
836 15-02-2019 21:35:00 3.1 C 88 % 1.31 C
837 15-02-2019 21:40:00 2.9 C 88 % 1.11 C
838 15-02-2019 21:45:00 2.8 C 89 % 1.17 C
839 15-02-2019 21:50:00 2.7 C 89 % 1.07 C
840 15-02-2019 21:55:00 2.6 C 89 % 0.97 C
841 15-02-2019 22:00:00 2.4 C 89 % 0.78 C
842 15-02-2019 22:05:00 2.4 C 90 % 0.93 C
843 15-02-2019 22:10:00 2.3 C 89 % 0.68 C
844 15-02-2019 22:15:00 2.1 C 90 % 0.64 C
845 15-02-2019 22:20:00 1.9 C 90 % 0.44 C
846 15-02-2019 22:25:00 1.8 C 90 % 0.34 C
847 15-02-2019 22:30:00 1.7 C 90 % 0.24 C
848 15-02-2019 22:35:00 1.7 C 91 % 0.39 C
849 15-02-2019 22:40:00 1.6 C 91 % 0.29 C
850 15-02-2019 22:45:00 1.5 C 91 % 0.19 C
Sensor: Nr:Datum:Temp:Feuchte:Taupunkt:
Aussen-T/F 851 15-02-2019 22:50:00 1.4 C 91 % 0.1 C
852 15-02-2019 22:55:00 1.4 C 92 % 0.25 C
853 15-02-2019 23:00:00 1.4 C 92 % 0.25 C
854 15-02-2019 23:05:00 1.4 C 92 % 0.25 C
855 15-02-2019 23:10:00 1.4 C 92 % 0.25 C
856 15-02-2019 23:15:00 1.4 C 92 % 0.25 C
857 15-02-2019 23:20:00 1.3 C 92 % 0.15 C
858 15-02-2019 23:25:00 1.3 C 92 % 0.15 C
859 15-02-2019 23:30:00 1.2 C 92 % 0.05 C
860 15-02-2019 23:35:00 1.2 C 92 % 0.05 C
861 15-02-2019 23:40:00 1.2 C 93 % 0.2 C
862 15-02-2019 23:45:00 1.2 C 92 % 0.05 C
863 15-02-2019 23:50:00 1 C 92 % -0.15 C
864 15-02-2019 23:55:00 0.8 C 92 % -0.35 C

Legende:
   Min
   Max


Maximal/Minimal-Werte vom 13.02.2019 - 15.02.2019

Sensor Min Max Avg
Temp
(Aussen-T/F)
-2.7 °C
14-02-2019  07:00:00
11.3 °C
15-02-2019  16:15:00
1.63 °C
Feuchte
(Aussen-T/F)
64 %
15-02-2019  16:05:00
97 %
14-02-2019  11:30:00
91.21 %
Taupunkt
(Aussen-T/F)
-3.39 C
14-02-2019  07:00:00
6.05 C
15-02-2019  15:20:00
0.31 C

Die Daten stammen von einer Davis Vantage Pro 2 Wetter-Station und werden unter Linux mit der Software wview2wettercgi und aufbereitet. Alle Angaben erfolgen ohne Gewähr für ihre Vollständigkeit oder Richtigkeit.
Kontakt: Rainer Krienke krienke@uni-koblenz.de . Meine Webseiten an der Uni Koblenz oder privat.
Version: $Revision: 0.78 $